Weather History for KSNS - January, 2013

Change the Weather History Date:

Friday, January 11, 2013

  Actual Average Record
Temperature  
Mean Temperature 42 °F 51 °F  
Max Temperature 51 °F 61 °F 75 °F (1986)
Min Temperature 32 °F 41 °F 20 °F (1949)
Degree Days  
Heating Degree Days 23 14  
Month to date heating degree days 190 154  
Since 1 July heating degree days 1078 1207  
Cooling Degree Days 0 0  
Month to date cooling degree days 0 0  
Year to date cooling degree days 0 0  
Moisture  
Dew Point 35 °F    
Average Humidity 71    
Maximum Humidity 96    
Minimum Humidity 46    
Precipitation  
Precipitation 0.00 in 0.09 in 1.00 in (1970)
Month to date precipitation 0.95 0.89  
Year to date precipitation 0.95 0.89  
Since 1 July precipitation 7.59 5.00  
Sea Level Pressure  
Sea Level Pressure 30.23 in    
Wind  
Wind Speed 3 mph (West)    
Max Wind Speed 15 mph    
Max Gust Speed 21 mph    
Visibility 10 miles    
Events      
T = Trace of Precipitation, MM = Missing Value Source: NWS Daily Summary

Daily Weather History Graph

Daily Weather History Graph

Search for Another Location

Airport or City:

Trip Planner

Search our weather history database for the weather conditions in past years. The results will help you decide how hot, cold, wet, or windy it might be!

Date:

Astronomy

Jan. 11, 2013 Rise Set
Actual Time 7:18 AM PST 5:10 PM PST
Civil Twilight 6:50 AM PST 5:38 PM PST
Nautical Twilight 6:18 AM PST 6:10 PM PST
Astronomical Twilight 5:47 AM PST 6:42 PM PST
Moon 6:57 AM PST (1/11) 5:33 PM PST (1/11)
Length of Visible Light 10h 48m
Length of Day
9h 51m
New Moon, 0% of the Moon is Illuminated
Jan 11
New Moon
Jan 18
First Quarter
Jan 26
Full
Feb 3
Last Quarter
Feb 9
New

Hourly Weather History & Observations

Time (PST) Temp. Windchill Dew Point Humidity Pressure Visibility Wind Dir Wind Speed Gust Speed Precip Events Conditions
12:53 AM 36.0 °F - 33.1 °F 89% 30.25 in 10.0 mi Calm Calm - N/A   Clear
1:53 AM 36.0 °F - 32.0 °F 86% 30.25 in 10.0 mi Calm Calm - N/A   Clear
2:53 AM 34.0 °F 29.8 °F 32.0 °F 92% 30.25 in 10.0 mi NNE 4.6 mph - N/A   Clear
3:53 AM 35.1 °F - 30.9 °F 85% 30.24 in 10.0 mi Calm Calm - N/A   Clear
4:53 AM 35.1 °F - 30.9 °F 85% 30.25 in 10.0 mi Calm Calm - N/A   Clear
5:53 AM 35.1 °F - 30.9 °F 85% 30.26 in 10.0 mi Calm Calm - N/A   Clear
6:53 AM 33.1 °F - 28.9 °F 85% 30.28 in 10.0 mi Calm Calm - N/A   Clear
7:53 AM 34.0 °F - 30.9 °F 89% 30.29 in 10.0 mi Calm Calm - N/A   Clear
8:53 AM 37.0 °F - 33.1 °F 86% 30.30 in 10.0 mi Calm Calm - N/A   Clear
9:53 AM 43.0 °F - 36.0 °F 76% 30.31 in 10.0 mi Calm Calm - N/A   Clear
10:53 AM 46.9 °F - 35.1 °F 63% 30.29 in 10.0 mi Calm Calm - N/A   Clear
12:53 PM 50.0 °F - 30.9 °F 48% 30.23 in 10.0 mi West 4.6 mph - N/A   Overcast
1:53 PM 51.1 °F - 34.0 °F 52% 30.22 in 10.0 mi West 5.8 mph - N/A   Clear
2:53 PM 51.1 °F - 37.0 °F 59% 30.21 in 10.0 mi West 10.4 mph - N/A   Mostly Cloudy
3:53 PM 51.1 °F - 39.0 °F 63% 30.19 in 10.0 mi West 15.0 mph - N/A   Overcast
4:53 PM 50.0 °F - 41.0 °F 71% 30.18 in 10.0 mi WSW 11.5 mph - N/A   Mostly Cloudy
5:53 PM 48.0 °F - 39.0 °F 71% 30.17 in 10.0 mi West 11.5 mph - N/A   Partly Cloudy
6:53 PM 48.0 °F - 39.9 °F 74% 30.17 in 10.0 mi West 6.9 mph - N/A   Clear
7:53 PM 45.0 °F 43.5 °F 39.0 °F 80% 30.17 in 10.0 mi NNW 3.5 mph - N/A   Clear
9:53 PM 42.1 °F - 39.0 °F 89% 30.19 in 10.0 mi Calm Calm - N/A   Mostly Cloudy
10:53 PM 41.0 °F - 36.0 °F 82% 30.19 in 10.0 mi Calm Calm - N/A   Clear
11:53 PM 39.9 °F - 37.0 °F 89% 30.18 in 10.0 mi Calm Calm - N/A   Overcast